Погода в Курском

Россия / Республика Крым     45°01′31″N   34°56′06″E
темп.,
°C
ветер,
м/с
пор.,
м/с
влажн.,
%
обл.,
%
осадки,
мм/ч
давл.,
гПа
погр.,
м
17 октября, вс
вс1700:00+12юз228753 0.1 101541
03:00+11ссз018898 0.1 101410
06:00+10сз2291100 0.0 101417
09:00+13сз127294 0.0 1015162
12:00+16с2254100 0.0 1015689
15:00+17с334888 0.0 10141006
18:00+12с225941 0.0 101635
21:00+11сз226231 0.0 101731
18 октября, пн
пн1800:00+10сз23659 0.0 101839
03:00+10зсз237172 0.0 101840
06:00+11сз2568100 0.0 1019228
09:00+11сз246799 0.0 1020344
12:00+13сз355961 0.0 1020624
15:00+14сз45525 0.0 1019981
18:00+11ссз226258 0.0 102035
21:00+9зсз36585 0.0 1022138
19 октября, вт
вт1900:00+8зсз49651 0.0 1022253
03:00+7зсз3106666 0.0 1022265
06:00+8зсз41060100 0.0 1022377
09:00+10зсз7126732 0.0 10231184
12:00+12сз7115099 0.0 10231846
15:00+12сз71044100 0.0 10232114
18:00+9с475577 0.1 10251020
21:00+6зсз22685 0.1 102817
20 октября, ср
ср2000:00+6зсз22664 0.0 102918
03:00+4сз22660 0.0 102920
06:00+4сз2262100 0.0 103016
09:00+7сз1245100 0.0 1030159
12:00+10зсз1229100 0.0 10301068
15:00+12зюз12293 0.0 10281244
18:00+8ююз11500 0.0 102914
21:00+6ююз23701 0.0 102932
21 октября, чт
чт2100:00+6ююз33785 0.0 102848
03:00+6ююз228510 0.0 102825
06:00+7ююз348241 0.0 1027180
09:00+10ююз467263 0.0 1027780
12:00+13ююз576628 0.0 1025847
15:00+13ююз566566 0.0 1024785
18:00+10ююз468131 0.0 1023313
21:00+10ююз478355 0.0 1022404